Wind_Speed
43 43 44 45 47 49 52 54 56 57 57 57 59 60 62 64 65 66 67 68 69 70 72 73 75 77 79 82 84 86 89 91 94 96 98 100 102 103
43 44 45 47 50 53 56 58 60 61 61 62 63 64 65 65 66 67 68 70 71 73 76 78 81 84 87 90 92 94 96 98 99 99 99 98 98 97
44 45 47 50 54 57 59 61 62 64 65 65 67 68 68 68 69 70 72 74 76 80 83 86 90 93 95 97 98 98 97 94 91 88 84 81 79 77
45 47 51 54 57 60 61 62 64 66 67 67 68 68 69 71 73 75 77 80 84 88 92 95 97 98 98 96 93 88 83 77 73 69 65 63 60 58
47 51 54 57 59 61 62 64 65 66 68 68 68 70 72 75 78 80 84 88 93 96 97 97 95 91 87 83 77 72 66 62 59 57 55 53 52 50
51 54 57 59 60 62 63 65 66 67 68 69 70 73 76 80 84 87 90 93 94 94 91 87 81 76 71 67 63 59 57 55 53 51 50 49 48 46
53 56 57 59 61 63 64 65 66 67 69 71 74 77 81 85 89 92 91 88 83 79 75 69 66 63 60 58 56 54 53 51 50 49 48 46 45 44
54 56 58 60 62 63 64 66 68 71 73 76 79 83 87 89 89 87 82 76 68 64 63 59 59 57 56 55 54 54 52 50 48 48 47 45 44 43
54 56 58 60 61 63 64 67 71 74 78 81 84 86 86 84 81 75 69 63 59 58 58 54 55 54 54 53 54 54 52 50 48 46 45 44 43 42
55 57 58 60 62 64 66 69 74 78 82 84 85 83 80 76 69 63 58 55 53 55 57 54 53 52 51 50 52 53 52 50 47 45 44 43 43 42
56 57 59 61 64 67 70 74 78 81 83 83 80 75 69 63 58 56 54 53 52 51 56 55 52 51 47 46 48 50 50 49 46 42 41 40 41 41
56 58 61 64 67 71 74 77 78 78 76 73 68 62 57 55 54 54 54 54 54 52 53 53 49 49 43 39 42 46 47 46 44 40 37 37 38 38
57 60 63 67 70 73 76 76 75 71 66 59 54 50 49 50 51 54 56 56 54 52 51 49 45 43 40 35 34 39 43 43 41 38 34 33 33 34
59 63 66 70 72 74 74 72 67 60 53 47 44 44 45 48 51 53 54 53 52 50 48 45 41 36 32 28 27 31 35 36 35 33 30 28 27 28
63 66 70 72 73 73 70 63 55 47 42 40 40 42 44 47 49 49 49 48 46 46 44 41 36 30 26 22 20 23 26 28 29 26 23 22 22 23
67 70 72 73 72 67 58 49 42 38 36 36 38 40 42 44 46 46 44 41 37 35 37 36 31 26 23 20 17 16 18 19 21 20 17 16 17 19
70 72 72 69 62 52 44 38 34 32 33 35 37 38 40 41 42 41 39 35 32 28 26 27 27 26 22 18 13 11 11 14 16 16 16 16 18 21
70 69 66 58 47 39 34 31 29 29 31 33 35 36 37 38 37 36 34 31 28 26 24 22 21 21 21 21 16 10 11 13 15 17 17 18 21 24
67 63 53 42 34 30 27 26 26 28 30 32 33 34 35 35 34 32 30 28 27 26 25 23 21 19 17 18 20 18 14 14 16 18 19 19 20 23
58 48 36 29 25 23 22 23 25 27 28 30 32 32 33 33 32 30 29 27 26 25 25 25 24 22 20 18 18 20 20 18 17 18 20 20 21 22
43 31 24 20 19 20 21 22 24 25 27 28 30 31 31 31 30 29 28 28 27 26 26 26 25 24 21 19 18 19 21 22 21 19 19 20 21 22
27 21 17 16 17 19 21 22 23 25 26 28 29 30 30 29 29 28 28 28 28 27 26 26 25 24 22 21 20 20 21 22 23 23 21 20 21 22
18 15 14 15 17 19 21 23 24 24 26 27 28 29 29 29 29 29 29 28 27 26 26 25 24 24 24 24 23 22 21 21 21 22 23 23 23 24
Wind_Direction
284 286 288 290 292 293 295 296 297 296 296 296 296 296 295 295 294 293 292 291 290 289 288 287 286 285 285 284 283 283 282 281 280 279 278 276 274 273
284 287 288 290 292 294 295 297 297 297 297 297 297 297 296 295 294 293 291 291 290 289 289 288 288 288 287 287 286 285 284 283 282 281 279 277 275 273
285 287 289 291 293 294 296 297 298 298 299 299 298 298 297 296 295 294 294 293 292 292 291 291 291 291 290 290 289 288 286 285 283 281 279 277 275 273
286 289 291 292 293 295 296 297 298 299 299 299 298 297 297 296 296 296 296 295 295 295 294 294 294 293 292 291 290 288 286 284 281 279 276 274 273 271
289 291 291 292 294 295 296 298 298 299 299 299 299 298 298 298 298 298 298 298 298 297 297 296 295 294 292 290 289 287 284 280 277 275 273 271 270 269
290 290 291 293 294 296 297 298 299 299 299 299 300 300 299 299 300 300 300 300 299 298 297 296 295 293 291 290 288 286 282 279 275 273 271 269 267 266
288 290 292 294 296 298 299 299 300 300 300 300 301 301 301 301 301 301 301 301 300 298 296 295 294 293 292 291 289 286 284 279 275 272 270 267 264 263
290 292 294 296 298 299 300 301 301 301 301 302 303 303 303 303 303 304 303 301 299 296 295 295 294 293 292 290 289 287 285 282 278 272 269 265 262 260
292 295 297 298 299 300 301 301 302 303 303 304 304 304 304 305 305 304 303 302 301 297 294 293 291 291 290 289 287 284 283 282 279 274 269 265 261 259
295 297 298 299 300 300 302 303 304 304 304 305 306 306 307 307 306 305 303 302 301 299 296 295 292 291 290 288 285 283 282 281 279 274 269 264 261 258
298 299 300 300 301 302 304 305 306 306 307 307 308 309 309 308 307 306 306 305 303 301 298 299 297 293 290 287 284 282 282 281 280 276 269 264 260 257
300 301 302 303 304 305 306 307 307 307 308 309 310 311 311 310 310 310 309 308 307 304 301 301 300 296 291 284 281 280 281 282 281 278 271 264 259 256
302 303 304 305 306 307 307 308 308 309 309 310 310 311 312 313 313 314 314 313 312 310 307 305 303 300 296 288 277 276 278 279 280 279 273 265 260 256
304 305 305 306 307 308 308 309 310 310 311 312 312 314 315 316 317 317 317 317 316 315 312 311 311 308 302 293 281 275 278 280 279 277 274 268 260 254
306 306 307 307 308 308 309 310 311 312 313 314 316 318 319 320 321 321 321 320 320 318 318 318 320 319 313 305 291 281 278 279 281 280 276 269 261 255
307 307 307 308 308 309 310 310 311 313 314 317 319 321 323 324 325 326 326 325 324 321 320 324 328 329 326 320 309 294 285 279 279 283 281 273 265 259
307 307 308 309 310 310 309 310 312 315 318 321 323 325 327 329 330 331 332 333 333 333 329 329 333 335 336 335 326 306 294 288 286 286 285 280 275 271
307 309 310 310 309 309 311 312 315 319 323 326 327 329 331 333 334 336 338 340 341 341 341 340 337 335 333 333 334 323 307 297 292 291 288 283 278 278
310 311 311 308 308 310 312 314 318 322 325 328 330 332 335 337 339 340 341 343 343 343 344 344 343 341 334 327 324 327 319 306 299 294 291 287 280 276
312 312 309 308 310 312 315 318 321 325 328 331 334 336 338 341 343 343 344 345 346 346 345 344 344 342 338 332 323 320 320 315 307 298 293 289 283 278
314 312 310 310 313 317 320 323 325 328 331 334 337 339 340 342 344 345 347 347 347 347 346 344 342 341 340 336 330 323 318 317 315 308 299 291 286 282
316 313 312 314 319 323 325 327 328 330 333 336 339 341 343 344 346 347 347 347 346 346 345 344 343 342 341 337 332 327 321 318 318 316 310 301 292 286
318 316 317 320 324 326 327 329 330 332 334 338 340 342 344 346 346 346 346 345 346 346 346 347 345 343 342 339 337 333 329 326 322 318 315 311 304 299
Height
5699 5696 5692 5688 5684 5679 5674 5670 5665 5661 5657 5651 5643 5637 5630 5624 5618 5612 5607 5601 5595 5589 5583 5577 5572 5567 5562 5557 5552 5547 5542 5537 5532 5527 5522 5518 5514 5511
5688 5685 5681 5676 5672 5666 5661 5656 5650 5645 5641 5635 5628 5621 5614 5607 5600 5594 5588 5582 5575 5568 5561 5554 5548 5542 5535 5529 5522 5516 5510 5504 5498 5492 5486 5481 5477 5473
5677 5673 5669 5664 5659 5653 5648 5642 5636 5630 5624 5619 5610 5602 5595 5588 5581 5574 5567 5560 5553 5544 5536 5528 5521 5513 5505 5497 5489 5482 5475 5469 5463 5457 5452 5448 5444 5442
5666 5662 5657 5652 5646 5640 5634 5628 5621 5614 5607 5601 5594 5585 5577 5568 5561 5554 5546 5537 5528 5518 5508 5499 5490 5481 5472 5463 5455 5449 5443 5438 5433 5429 5426 5423 5420 5419
5654 5650 5644 5639 5633 5627 5620 5613 5606 5598 5590 5583 5577 5568 5559 5549 5540 5532 5522 5511 5499 5487 5477 5468 5458 5448 5439 5431 5426 5421 5417 5413 5411 5408 5405 5403 5402 5401
5642 5637 5631 5625 5619 5613 5605 5597 5590 5582 5573 5566 5558 5549 5540 5528 5518 5509 5500 5486 5472 5457 5446 5438 5429 5421 5413 5407 5403 5399 5395 5393 5391 5389 5388 5387 5386 5386
5630 5624 5618 5612 5605 5597 5589 5581 5573 5565 5557 5548 5540 5530 5519 5507 5495 5483 5473 5462 5448 5431 5423 5415 5406 5400 5393 5387 5383 5379 5376 5374 5373 5372 5371 5370 5370 5371
5617 5611 5604 5597 5589 5582 5573 5565 5556 5547 5538 5529 5519 5507 5496 5483 5471 5458 5447 5437 5429 5414 5404 5399 5388 5383 5376 5370 5364 5360 5357 5356 5355 5354 5354 5354 5354 5356
5604 5597 5590 5582 5575 5567 5559 5550 5539 5527 5517 5507 5497 5484 5472 5460 5449 5437 5425 5416 5408 5395 5387 5385 5375 5369 5362 5354 5347 5343 5340 5338 5337 5337 5337 5338 5339 5341
5590 5583 5576 5568 5560 5552 5544 5534 5522 5509 5498 5485 5473 5461 5448 5437 5427 5418 5409 5401 5394 5380 5368 5366 5361 5354 5348 5340 5330 5325 5322 5321 5320 5320 5321 5322 5323 5325
5576 5569 5562 5554 5545 5536 5527 5517 5504 5490 5475 5462 5450 5439 5428 5418 5409 5402 5393 5385 5379 5368 5352 5347 5343 5336 5333 5326 5316 5309 5306 5304 5304 5305 5305 5307 5308 5310
5562 5555 5547 5538 5528 5518 5508 5497 5485 5472 5458 5445 5433 5422 5413 5403 5394 5386 5377 5369 5360 5353 5341 5332 5326 5317 5317 5314 5305 5296 5291 5289 5289 5290 5291 5292 5293 5296
5549 5540 5531 5522 5511 5501 5489 5478 5466 5455 5443 5432 5421 5411 5402 5392 5382 5372 5362 5352 5343 5334 5324 5316 5311 5303 5298 5298 5294 5286 5280 5277 5277 5277 5278 5279 5281 5284
5535 5526 5516 5506 5495 5483 5471 5460 5449 5439 5429 5420 5411 5403 5393 5383 5372 5361 5350 5339 5328 5319 5311 5302 5297 5291 5286 5283 5280 5277 5271 5268 5267 5267 5267 5269 5271 5273
5519 5510 5500 5489 5478 5466 5455 5445 5435 5426 5419 5411 5403 5394 5384 5374 5363 5353 5342 5331 5321 5309 5299 5292 5286 5281 5277 5273 5271 5268 5265 5262 5259 5259 5260 5261 5262 5264
5503 5493 5482 5472 5461 5450 5440 5431 5424 5417 5410 5403 5395 5386 5376 5366 5355 5344 5334 5325 5316 5307 5295 5286 5281 5276 5272 5268 5264 5261 5259 5257 5255 5254 5254 5255 5256 5256
5487 5475 5464 5454 5444 5435 5428 5421 5415 5409 5403 5395 5388 5379 5370 5359 5349 5338 5328 5319 5310 5303 5296 5288 5280 5274 5269 5264 5261 5258 5256 5254 5252 5251 5250 5250 5250 5249
5469 5458 5448 5438 5430 5424 5418 5413 5408 5402 5396 5389 5381 5373 5364 5354 5345 5334 5325 5316 5308 5300 5293 5287 5281 5276 5270 5264 5260 5258 5255 5252 5250 5248 5246 5245 5244 5242
5451 5441 5432 5425 5420 5416 5411 5407 5402 5397 5391 5383 5376 5368 5359 5350 5340 5332 5323 5315 5307 5299 5292 5286 5280 5275 5270 5265 5260 5255 5252 5249 5246 5243 5241 5239 5237 5235
5434 5426 5420 5416 5413 5410 5406 5402 5397 5392 5385 5378 5371 5363 5355 5346 5337 5329 5321 5313 5306 5298 5291 5284 5278 5272 5267 5263 5258 5253 5248 5244 5241 5238 5235 5232 5229 5227
5421 5416 5413 5410 5408 5405 5401 5397 5392 5387 5381 5374 5367 5359 5351 5343 5335 5327 5319 5311 5304 5297 5290 5284 5277 5270 5264 5259 5255 5251 5245 5239 5235 5231 5228 5225 5222 5219
5413 5410 5408 5406 5403 5400 5397 5393 5388 5382 5376 5370 5363 5355 5348 5340 5333 5325 5318 5310 5303 5296 5289 5282 5275 5269 5263 5257 5252 5247 5242 5236 5230 5225 5220 5217 5213 5210
5408 5406 5405 5403 5400 5397 5393 5388 5384 5378 5373 5366 5360 5353 5345 5338 5330 5323 5316 5309 5302 5295 5288 5281 5274 5267 5260 5254 5248 5242 5237 5232 5226 5221 5215 5209 5205 5201